Location: Baia Mare
(47.6567°N, 23.5850°E)
Time: 14:35:42
(UTC+03:00)

ISS - Pass Details

Date: 15 July 2019
Orbit: 409 x 418 km, 51.6° (Epoch: 21 July)

Event Time Altitude Azimuth Distance (km) Brightness Sun altitude
Rises 04:58:24 0° 293° (WNW) 2,345 -0.2 -6.7°
Reaches altitude 10° 05:00:29 10° 292° (WNW) 1,480 -1.2 -6.4°
Maximum altitude 05:03:48 72° 208° (SSW) 435 -3.9 -6.0°
Drops below altitude 10° 05:07:05 10° 123° (ESE) 1,470 -0.8 -5.6°
Sets 05:09:10 0° 121° (ESE) 2,328 0.3 -5.3°
